Regional Weather Roundup
Issued by NWS Charleston, SC

Current Version | Previous Version | Text Only | Print | Product List | Glossary Off
Versions: 1 2 3 4 5 6 7 8 9 10 11 12 13 14 15 16 17 18 19 20 21 22 23 24 25 26 27 28 29 30 31 32 33 34 35 36 37 38 39 40 41 42 43 44 45 46 47 48 49 50
000 ASUS42 KCHS 250212 RWRCHS REGIONAL WEATHER ROUNDUP NATIONAL WEATHER SERVICE CHARLESTON SC 1000 PM EDT SUN MAY 24 2015 NOTE: "FAIR" INDICATES FEW OR NO CLOUDS BELOW 12,000 FEET WITH NO SIGNIFICANT WEATHER AND/OR OBSTRUCTIONS TO VISIBILITY. NOT ALL STATIONS ARE QUALITY CONTROLLED BY THE NATIONAL WEATHER SERVICE. USE DATA WITH CAUTION...ESPECIALLY DEWPOINT OBSERVATIONS. SCZ027-030-031-034>040-042>050-250300- ...SOUTHEAST SOUTH CAROLINA... CITY SKY/WX TMP DP RH WIND PRES REMARKS N CHARLESTON PTCLDY 72 59 63 E6 30.32R WATERFRONT PAR N/A 75 64 68 E15 30.28S MOUNT PLEASANT LGT RAIN 72 59 64 E5 30.32S JOHNS ISLAND CLEAR 73 63 68 E7 30.32R PINOPOLIS N/A N/A N/A N/A VRB2 30.23S MONCKS CORNER FAIR 70 59 68 CALM 30.32S SUMMERVILLE FAIR 70 61 73 CALM 30.33R BEAUFORT MCAS PTCLDY 73 62 68 E8 30.29S BEAUFORT ARPT FAIR 72 64 78 E6 30.29S HILTON HEAD IS CLEAR 75 64 69 NE8G18 30.30S WALTERBORO CLEAR 68 61 77 E3 30.32R ALLENDALE FAIR 72 63 73 CALM 30.29S ...SOUTHERN MIDLANDS AND PEE DEE... CITY SKY/WX TMP DP RH WIND PRES REMARKS GEORGETOWN NOT AVBL KINGSTREE NOT AVBL ORANGEBURG CLEAR 71 57 61 SE8 30.31R BARNWELL FAIR 73 61 64 E9 30.30S AIKEN FAIR 72 54 53 SE7 30.33R MANNING FAIR 63 55 77 CALM 30.32S COLUMBIA CLEAR 73 56 54 SE9 30.29S SUMTER NOT AVBL FLORENCE CLEAR 68 57 68 SE6 30.33R MYRTLE BEACH PTCLDY 73 57 56 SE12 30.35R N MYRTLE BEACH CLEAR 74 57 55 SE6 30.33R $$ GAZ063-065-086>088-099>101-113>116-118-119-134>141-150-250300- ...SOUTHEAST GEORGIA... CITY SKY/WX TMP DP RH WIND PRES REMARKS SAVANNAH ARPT PTCLDY 74 63 68 E10G20 30.28S HUNTER AAF CLEAR 74 65 73 E13 30.25S FORT STEWART CLOUDY 74 65 71 E10 30.25S STATESBORO PTCLDY 73 66 80 E6 30.29R SYLVANIA CLEAR 73 65 77 SE5 30.30S CLAXTON MOCLDY 72 64 78 E5 30.28R ...CSRA...CENTRAL AND FAR SOUTHEAST GEORGIA... CITY SKY/WX TMP DP RH WIND PRES REMARKS THOMSON CLEAR 76 60 58 SE5 30.31R AUGUSTA-BUSH CLEAR 71 59 65 SE8 30.28R AUGUSTA-DANIEL CLEAR 75 57 53 SE9 30.29R SWAINSBORO FAIR 77 64 65 SE10 30.29R VIDALIA CLEAR 73 64 73 E7 30.27S EASTMAN FAIR 75 61 60 SE7 30.27R HAZLEHURST FAIR 75 65 70 E8 30.25R ALMA CLEAR 73 65 75 E6 30.24S WAYCROSS CLEAR 74 68 80 E9 30.23S JESUP FAIR 73 70 88 E6 30.26S BAXLEY FAIR 73 66 78 E6 30.25S BRUNSWICK N/A 75 68 78 E8 30.25S SAINT SIMONS NOT AVBL $$ SCZ027-028-034-036>038-045-046-048>050-GAZ119-141-250300- ...LAKE AND SUPPLEMENTAL COASTAL OBSERVATIONS... STATION/POSITION TIME TEMP WIND PRES WAVE SWELL AIR SEA DIR/SP/G HT/PER HT/PER/DIR (UTC) (F) (DEG/KT/KT) (MB) (FT/S) (FT/S/D) UPR LAKE MARION NOT AVBL WINYAH BAY NOT AVBL LAKE MURRAY 0100 76 130/ 8/ 11 1024.7R ACE BASIN NERRS NOT AVBL FORT PULASKI 0100 76 78 80/ 20/ 25 1025.7F SAPELO ISLAND 0100 76 80/ 5 1025.0R $$ ANZ835-935-AMZ111-154-330-350-352-354-370-450-454-472-250300- ...C-MAN AND BUOY OBSERVATIONS... STATION/POSITION TIME TEMP WIND PRES WAVE SWELL AIR SEA DIR/SP/G HT/PER HT/PER/DIR (UTC) (F) (DEG/KT/KT) (MB) (FT/S) (FT/S/D) BUOY 41004 0150 75 75 110/ 14/ 17 1026.0R 6/ 8 3/ 8 BUOY 41008 0150 76 75 100/ 16/ 17 1024.4F 5/ 7 FOLLY BEACH CMAN 0200 75 110/ 15/ 17 1026.7R CAPERS NEARSHORE 0108 75 120/ 16/ 21 1026.3S FRIPP NEARSHORE NOT AVBL STATION/POSITION TIME TEMP WIND PRES WAVE SWELL AIR SEA DIR/SP/G HT/PER HT/PER/DIR (UTC) (F) (DEG/KT/KT) (MB) (FT/S) (FT/S/D) 5E ST. MARYS GA 0121 78 N/A 4/ 8 FRYING PAN BUOY 0150 75 74 110/ 12/ 14 1027.8R 4/ 6 2/110/ 6 BUOY 41025 0150 74 78 120/ 6/ 8 1028.1R 2/ 7 2/ 60/ 7 CAPE LOOKOUT NC 0100 73 120/ 9/ 10 1027.2R BUOY 41002 0150 72 74 90/ 14/ 17 1026.9R 4/ 6 2/100/ 9 BUOY 41010 0120 78 79 80/ 17/ 21 1023.1R ST AUGUSTINE FL 0200 76 78 70/ 14/ 16 1023.9S $$

USA.gov is the U.S. government's official web portal to all federal, state and local government web resources and services.